Voltar ao catálogo

STARLINK-31444

AtivoComunicaçõesVLEO
NORAD 59236·PAYLOAD·🇺🇸 United States

Lançado Mar 16, 2024 de Cape Canaveral Space Force Station

Loading…

Próximas Passagens (próximas 24 horas)

TLE

AtualizadoSource: CelesTrak SupGP

Época: Sep 15, 2026, 03:40 UTC

1 59236C 24049F   26258.15326389  .00163150  00000+0  27189-2 0  2586
2 59236  42.9934  67.8418 0019177 297.7212 200.2850 15.50818199    12

Acompanhe STARLINK-31444 em tempo real com AllMySat

Download on the App Store